Regional Weather Roundup
Issued by NWS

Home | Current Version | Previous Version | Text Only | Print | Product List | Glossary Off
Versions: 1 2 3 4 5 6 7 8 9 10 11 12 13 14 15 16 17 18 19 20 21 22 23 24 25 26 27 28 29 30 31 32 33 34 35 36 37 38 39 40 41 42 43 44 45 46 47 48 49 50

000
ASUS43 KOAX 240310
RWRNE

WEATHER ROUNDUP FOR NEBRASKA
NATIONAL WEATHER SERVICE OMAHA NE
1000 PM CDT SUN JUL 23 2017

NOTES: SATELLITE DATA IS BEING USED TO AUGMENT CLOUD COVER ABOVE
       12000 FEET.
       "FAIR" INDICATES FEW OR NO CLOUDS BELOW 12,000 FEET WITH NO
       SIGNIFICANT WEATHER AND/OR OBSTRUCTIONS TO VISIBILITY.


NEZ001>004-019>022-054>056-240400-
NEBRASKA PANHANDLE

CITY           SKY/WX    TMP DP  RH WIND       PRES   REMARKS
SCOTTSBLUFF    CLEAR     76  54  46 E7        29.99R
ALLIANCE       CLEAR     71  48  43 SE8       30.00R
CHADRON        CLEAR     80  52  37 SE8       29.94R
GORDON         FAIR      75  53  47 SE9       30.00R
KIMBALL        CLEAR     78  49  35 S13       30.10S
SIDNEY         CLOUDY    78  47  33 S12       30.08R
$$

NEZ057>060-069>072-079>082-240400-
SOUTHWEST NEBRASKA

CITY           SKY/WX    TMP DP  RH WIND       PRES   REMARKS
NORTH PLATTE   CLEAR     76  67  73 SE12      30.00R
IMPERIAL       CLEAR     76  51  41 S8        30.02R
LEXINGTON      CLEAR     76  65  69 SE8       30.01R
MCCOOK         CLEAR     78  59  51 E8        30.00R
OGALLALA       CLEAR     78  54  42 CALM      30.00R
$$

NEZ005>010-023>029-035>040-094-240400-
NORTH CENTRAL NEBRASKA

CITY           SKY/WX    TMP DP  RH WIND       PRES   REMARKS
VALENTINE      CLEAR     81  53  37 E12       30.00R
AINSWORTH      CLEAR     72  60  67 E7        30.02R
BROKEN BOW     CLEAR     73  61  65 E5        30.01R
O`NEILL        CLEAR     72  61  69 E9        30.01R
ORD            CLEAR     74  59  59 SE5       29.99R
THEDFORD       CLEAR     78  56  46 E7        30.03R
$$

NEZ041-046>049-061>064-073>077-083>087-240400-
SOUTH CENTRAL NEBRASKA

CITY           SKY/WX    TMP DP  RH WIND       PRES   REMARKS
GRAND ISLAND   CLEAR     73  65  75 E5        30.01R
AURORA         CLEAR     72  69  89 E6        30.00R
HASTINGS       CLEAR     75  67  76 E7        30.01R
HEBRON         CLEAR     76  68  76 NE5       29.99R
HOLDREGE       CLEAR     71  66  85 E6        30.02R
KEARNEY        CLEAR     72  67  84 E7        30.01R
YORK           CLEAR     72  66  83 E6        30.00R
$$

NEZ011>018-030>034-042>045-240400-
NORTHEAST NEBRASKA

CITY           SKY/WX    TMP DP  RH WIND       PRES   REMARKS
NORFOLK        CLEAR     73  55  53 NE3       29.99R
ALBION         CLEAR     72  62  70 NE8       30.00R
BLAIR          CLEAR     73  62  66 N5        29.97R
COLUMBUS       CLEAR     68  62  81 N6        29.99R
FREMONT        CLEAR     73  60  63 CALM      29.98R
TEKAMAH        CLEAR     70  63  78 N6        29.97R
WAYNE          CLEAR     67  63  87 CALM      29.99R
$$

NEZ050>053-065>068-078-088>093-240400-
SOUTHEAST NEBRASKA

CITY           SKY/WX    TMP DP  RH WIND       PRES   REMARKS
LINCOLN        CLEAR     76  64  66 CALM      29.98R
OMAHA EPPLEY   PTCLDY    73  62  68 NW5       29.96R
BEATRICE       CLEAR     74  65  73 NE5       29.98R
FALLS CITY     CLEAR     76  67  73 CALM      29.94R
NEBRASKA CITY  CLEAR     74  65  74 CALM      29.97R
PLATTSMOUTH    CLEAR     73  61  64 NE3       29.97R
$$

NEZ044-045-051>053-067-240400-
OMAHA AREA

CITY           SKY/WX    TMP DP  RH WIND       PRES   REMARKS
OMAHA EPPLEY   PTCLDY    73  62  68 NW5       29.96R
BLAIR          CLEAR     73  62  66 N5        29.97R
FREMONT        CLEAR     73  60  63 CALM      29.98R
MILLARD        CLEAR     80  62  54 CALM      29.97R
OFFUTT AFB     CLEAR     74  62  66 NE8       29.95R
PLATTSMOUTH    CLEAR     73  61  64 NE3       29.97R
WAHOO          FAIR      69  63  81 N5        29.97R
$$



USA.gov is the U.S. government's official web portal to all federal, state and local government web resources and services.